Flag for Canada Weather past 2 weeks in Brampton, Ontario, Canada

Now
81 °F

Partly sunny.


Feels Like: 83 °F
Forecast: 56 / 82 °F
Wind: 14 mph from Southwest

Location: Toronto Pearson International Airport

Current Time: May 30, 2015 at 11:49:13 AM

Latest Report: May 30, 2015 at 11:00 AM


Visibility: 15 mi

Pressure: 29.95 "Hg

Humidity: 62%

Dew point: 66 °F

Location of BramptonLocation

Historic Weather in Brampton — Graph

°F

Brampton temperature yesterday

Maximum temperature yesterday: 77 °F (at 1:00 PM)
Minimum temperature yesterday: 61 °F (at 2:00 AM)
Average temperature yesterday: 68 °F

Past Weeks' High & Low Weather Summary

 TemperatureHumidityPressure
High84 °F (May 26, 3:00 PM)88% (May 19, 3:00 AM)30.43 "Hg (May 19, 3:00 AM)
Low36 °F (May 23, 5:03 AM)20% (May 23, 3:00 PM)29.83 "Hg (May 21, 5:00 PM)
Average64 °F56%30.07 "Hg
* Reported May 15 11:00 AM — May 30 11:00 AM, Brampton, Weather by CustomWeather, © 2015

Note: Actual official high and low records may vary slightly from our data, if they occured in-between our weather recording intervals... More about our weather records

Advertising

Brampton weather history for previous 24 hours

 ConditionsComfort  
Time TempWeatherWind HumidityBarometerVisibility
11:00 AM
Sat, May 30
81 °FPartly sunny.14 mph62%29.95 "Hg15 mi
10:00 AM81 °FPassing clouds.14 mph62%29.95 "Hg15 mi
9:00 AM77 °FBroken clouds.14 mph65%29.96 "Hg15 mi
8:00 AM73 °FPartly sunny.18 mph74%29.96 "Hg15 mi
7:00 AM72 °FPartly sunny.13 mph73%29.96 "Hg15 mi
6:00 AM68 °FPassing clouds.8 mph83%29.95 "Hg15 mi
5:00 AM68 °FPassing clouds.7 mph83%29.94 "Hg15 mi
4:00 AM63 °FPassing clouds.7 mph77%29.95 "Hg15 mi
3:00 AM63 °FPassing clouds.6 mph73%29.96 "Hg15 mi
2:00 AM61 °FPassing clouds.7 mph72%29.98 "Hg15 mi
1:00 AM63 °FPassing clouds.3 mph68%29.99 "Hg15 mi
12:00 AM63 °FPassing clouds.5 mph68%30.02 "Hg15 mi
11:00 PM
Fri, May 29
63 °FPassing clouds.No wind68%30.04 "Hg15 mi
10:00 PM64 °FPartly cloudy.10 mph64%30.04 "Hg15 mi
9:00 PM70 °FPartly sunny.6 mph57%30.03 "Hg15 mi
8:00 PM72 °FBroken clouds.5 mph53%30.06 "Hg15 mi
7:00 PM73 °FBroken clouds.8 mph50%30.06 "Hg15 mi
6:00 PM73 °FPartly sunny.9 mph53%30.08 "Hg15 mi
5:00 PM75 °FBroken clouds.10 mph50%30.10 "Hg15 mi
4:00 PM75 °FPartly sunny.9 mph50%30.13 "Hg15 mi
3:00 PM77 °FPartly sunny.12 mph47%30.15 "Hg15 mi
2:00 PM77 °FOvercast.9 mph44%30.17 "Hg15 mi
1:00 PM77 °FHigh level clouds.10 mph44%30.19 "Hg15 mi
12:00 PM75 °FPartly sunny.12 mph44%30.19 "Hg15 mi
11:00 AM72 °FHigh level clouds.9 mph53%30.21 "Hg15 mi
Weather by CustomWeather, © 2015

See weather overviewHow to use our weather pages